FYL21GF LKMH-LKPR

Flight info

Callsign FYL21GF
Flight time 0h 21m
Altitude 10000
Route GOLOP
Aircraft PC24/M-SBDGIRWY/LB2

Departure

Time 2026-05-06 17:22
Airport Mnichovo Hradiště Airport (LKMH)

Arrival

Time 2026-05-06 17:44
Airport Václav Havel Airport Prague (LKPR)
Time Latitude Longitude Altitude Speed Heading
2026-05-06 17:13 50.53784 14.99304 806 ft 0 kts 187°
2026-05-06 17:20 50.53771 14.99300 806 ft 5 kts 194°
2026-05-06 17:21 50.53713 14.99302 806 ft 11 kts 155°
2026-05-06 17:21 50.53656 14.99348 806 ft 4 kts 120°
2026-05-06 17:21 50.53661 14.99399 806 ft 6 kts 68°
2026-05-06 17:21 50.53699 14.99536 805 ft 26 kts 66°
2026-05-06 17:22 50.53879 15.00186 803 ft 98 kts 66°
2026-05-06 17:22 50.54225 15.01438 808 ft 151 kts 65°
2026-05-06 17:22 50.54647 15.03024 1215 ft 160 kts 65°
2026-05-06 17:22 50.55114 15.04702 1732 ft 173 kts 64°
2026-05-06 17:23 50.55611 15.06462 2338 ft 186 kts 64°
2026-05-06 17:23 50.56316 15.08278 2797 ft 208 kts 37°
2026-05-06 17:23 50.57713 15.08958 3429 ft 221 kts 353°
2026-05-06 17:23 50.59133 15.07950 3857 ft 247 kts 314°
2026-05-06 17:24 50.59956 15.05468 4386 ft 268 kts 277°
2026-05-06 17:24 50.59874 15.02528 5294 ft 274 kts 263°
2026-05-06 17:24 50.59717 14.99591 6351 ft 275 kts 264°
2026-05-06 17:24 50.59611 14.96624 7426 ft 274 kts 265°
2026-05-06 17:25 50.59531 14.93682 8425 ft 274 kts 266°
2026-05-06 17:25 50.59462 14.90703 9379 ft 273 kts 266°
2026-05-06 17:25 50.59396 14.87721 9692 ft 276 kts 266°
2026-05-06 17:25 50.59325 14.84647 9735 ft 280 kts 266°
2026-05-06 17:26 50.59253 14.81603 9740 ft 279 kts 266°
2026-05-06 17:26 50.59173 14.78460 9766 ft 306 kts 266°
2026-05-06 17:26 50.59077 14.74996 9767 ft 323 kts 266°
2026-05-06 17:26 50.58976 14.71518 9749 ft 325 kts 266°
2026-05-06 17:27 50.58870 14.67975 9744 ft 324 kts 266°
2026-05-06 17:27 50.58762 14.64428 9745 ft 324 kts 266°
2026-05-06 17:27 50.58650 14.60884 9744 ft 324 kts 266°
2026-05-06 17:27 50.58536 14.57361 9744 ft 325 kts 266°
2026-05-06 17:28 50.58419 14.53838 9741 ft 324 kts 266°
2026-05-06 17:28 50.58298 14.50294 9744 ft 323 kts 266°
2026-05-06 17:28 50.58174 14.46750 9743 ft 323 kts 265°
2026-05-06 17:28 50.58047 14.43212 9744 ft 325 kts 265°
2026-05-06 17:29 50.57916 14.39679 9743 ft 324 kts 265°
2026-05-06 17:29 50.57316 14.36311 9747 ft 321 kts 239°
2026-05-06 17:29 50.55793 14.33875 9768 ft 321 kts 210°
2026-05-06 17:29 50.53721 14.32697 9767 ft 324 kts 192°
2026-05-06 17:30 50.51516 14.32418 9754 ft 325 kts 181°
2026-05-06 17:30 50.49233 14.32598 9741 ft 326 kts 176°
2026-05-06 17:30 50.47006 14.32959 9736 ft 326 kts 175°
2026-05-06 17:30 50.44766 14.33397 9740 ft 326 kts 174°
2026-05-06 17:31 50.42594 14.34148 9728 ft 329 kts 156°
2026-05-06 17:31 50.40768 14.36312 9750 ft 334 kts 137°
2026-05-06 17:31 50.38936 14.38553 9755 ft 332 kts 149°
2026-05-06 17:31 50.36959 14.40368 9747 ft 331 kts 153°
2026-05-06 17:32 50.34917 14.42042 9723 ft 330 kts 155°
2026-05-06 17:32 50.32879 14.43634 9746 ft 331 kts 155°
2026-05-06 17:32 50.30793 14.45231 9747 ft 331 kts 156°
2026-05-06 17:32 50.28719 14.46803 9746 ft 330 kts 156°
2026-05-06 17:33 50.26660 14.48358 9745 ft 330 kts 156°
2026-05-06 17:33 50.24682 14.49849 9743 ft 329 kts 156°
2026-05-06 17:33 50.22648 14.51403 9740 ft 330 kts 152°
2026-05-06 17:33 50.20903 14.53675 9530 ft 320 kts 135°
2026-05-06 17:34 50.19439 14.56128 9285 ft 307 kts 135°
2026-05-06 17:34 50.18029 14.58496 9034 ft 295 kts 135°
2026-05-06 17:34 50.16647 14.60820 8779 ft 284 kts 135°
2026-05-06 17:34 50.15339 14.62999 8537 ft 278 kts 135°
2026-05-06 17:35 50.14019 14.65126 8292 ft 270 kts 144°
2026-05-06 17:35 50.12401 14.66331 8072 ft 256 kts 165°
2026-05-06 17:35 50.10704 14.67107 7779 ft 251 kts 165°
2026-05-06 17:36 50.07429 14.68567 7128 ft 244 kts 165°
2026-05-06 17:36 50.05811 14.69279 6752 ft 239 kts 165°
2026-05-06 17:36 50.04215 14.69974 6283 ft 239 kts 165°
2026-05-06 17:36 50.02620 14.70655 5808 ft 240 kts 165°
2026-05-06 17:37 50.01026 14.71313 5445 ft 235 kts 165°
2026-05-06 17:37 49.99437 14.71576 5118 ft 235 kts 192°
2026-05-06 17:37 49.98051 14.70259 4817 ft 238 kts 232°
2026-05-06 17:37 49.97512 14.67862 4535 ft 242 kts 270°
2026-05-06 17:38 49.97610 14.65299 4285 ft 237 kts 275°
2026-05-06 17:38 49.97732 14.62806 4112 ft 225 kts 275°
2026-05-06 17:38 49.97823 14.60440 3977 ft 215 kts 270°
2026-05-06 17:38 49.97804 14.58117 3991 ft 214 kts 275°
2026-05-06 17:39 49.97900 14.55817 3979 ft 207 kts 276°
2026-05-06 17:39 49.97989 14.53688 3963 ft 194 kts 275°
2026-05-06 17:39 49.98080 14.51584 3987 ft 193 kts 276°
2026-05-06 17:39 49.98191 14.49496 4001 ft 196 kts 285°
2026-05-06 17:40 49.98792 14.47662 3994 ft 194 kts 321°
2026-05-06 17:40 49.99832 14.46415 3990 ft 182 kts 320°
2026-05-06 17:40 50.00682 14.45093 3873 ft 175 kts 315°
2026-05-06 17:40 50.01463 14.43671 3664 ft 171 kts 312°
2026-05-06 17:41 50.02187 14.42254 3454 ft 170 kts 311°
2026-05-06 17:41 50.02898 14.40819 3236 ft 169 kts 310°
2026-05-06 17:41 50.03608 14.39367 3016 ft 169 kts 310°
2026-05-06 17:41 50.04312 14.37923 2790 ft 168 kts 310°
2026-05-06 17:42 50.05011 14.36483 2564 ft 167 kts 309°
2026-05-06 17:42 50.05687 14.35087 2380 ft 159 kts 308°
2026-05-06 17:42 50.06315 14.33772 2144 ft 146 kts 307°
2026-05-06 17:42 50.06898 14.32569 1941 ft 136 kts 307°
2026-05-06 17:43 50.07450 14.31434 1776 ft 134 kts 307°
2026-05-06 17:43 50.08023 14.30256 1604 ft 136 kts 307°
2026-05-06 17:43 50.08596 14.29080 1423 ft 137 kts 307°
2026-05-06 17:43 50.09169 14.27909 1237 ft 138 kts 306°
2026-05-06 17:44 50.09674 14.26869 1212 ft 97 kts 306°
2026-05-06 17:44 50.09992 14.26210 1199 ft 56 kts 306°
2026-05-06 17:44 50.10170 14.25841 1188 ft 38 kts 307°
2026-05-06 17:44 50.10366 14.25663 1180 ft 28 kts 356°
2026-05-06 17:45 50.10450 14.25664 1176 ft 0 kts 12°
2026-05-06 17:46 50.10452 14.25665 1176 ft 2 kts 15°
2026-05-06 17:46 50.10490 14.25763 1175 ft 22 kts 76°
2026-05-06 17:46 50.10475 14.26032 1179 ft 25 kts 128°
2026-05-06 17:46 50.10371 14.26239 1184 ft 23 kts 125°
2026-05-06 17:47 50.10285 14.26426 1191 ft 20 kts 127°
2026-05-06 17:47 50.10204 14.26591 1196 ft 18 kts 127°